User: anonymous   Login
Location: Unspecified
(0.0000°N, 0.0000°E)
Time: 16:58:50
(UTC+00:00)
Language:

STARS - Orbit

View from above orbital plane
View from above orbital plane
View from above satellite
View from above satellite

Ground track
Ground track

The orbit data is extracted from the following two-line orbital elements,

1 33498U 09002G   18142.47469926 +.00000199 +00000-0 +34737-4 0  9998
2 33498 098.3319 333.2392 0010767 351.7542 020.1540 14.78803119501612
Epoch (UTC): 22 May 2018 11:23:34
Eccentricity: 0.0010767
inclination: 98.3319°
perigee height: 625 km
apogee height: 640 km
right ascension of ascending node: 333.2392°
argument of perigee: 351.7542°
revolutions per day: 14.78803119
mean anomaly at epoch: 20.1540°
orbit number at epoch: 50161

The dashed part of the orbit path shows where the satellite is in the earth's shadow,  

DLR